Location: Newark
(13.8117°N, 3.6025°W)
Time: 02:10:53
(UTC+00:00)

N. Korean satellite - Pass Details

Date: 24 August 2019
Orbit: 455 x 508 km, 97.2° (Epoch: 16 September)

Event Time Altitude Azimuth Distance (km) Brightness Sun altitude
Rises 05:32:56 0° 24° (NNE) 2,515 10.8 -7.8°
Reaches altitude 10° 05:35:08 10° 34° (NNE) 1,628 10.0 -7.3°
Maximum altitude 05:38:19 33° 99° (E) 800 8.5 -6.5°
Drops below altitude 10° 05:41:27 10° 165° (SSE) 1,603 9.2 -5.8°
Sets 05:43:36 0° 175° (S) 2,470 10.1 -5.3°
